Showing default

ORBCOMM FM 32, 25982

Orbit data source: Space-Track

ORBCOMM FM 32, 25982 is a payload satellite owned by Orbcomm (US) in LEO that was launched on Sat, 04 Dec 1999 UTC via a PEGASUS XL/HAPS launch vehicle from the Air Force Eastern Test Range (AFETR). Payload-class satellites include a variety of spacecraft equipped with specific instruments for various scientific and technological missions. These include communications satellites like Starlink; space stations such as the ISS; scientific satellites like the Hubble; Earth observation satellites from companies like Planet Labs, Umbra, and HawkEye 360; GPS; miniature CubeSats for education and research; and military/defense satellites.

Loading next visibility...
Identifier
25982, 1999-065C
Orbit
LEO
Country
Flag of USUS / ORB
Related business
Manufacturer
OSC-Germantown
Mission
Operational Commercial Communications
Bus & Motor
MICROSTAR, Unknown motor
Mass
44 kg wet, 44 kg dry
Launch date (UTC)
1999-12-04 (27 years ago)
Launch vehicle
PEGASUS XL/HAPS
Launch site
Air Force Eastern Test Range (AFETR)
Object type
Payload
Rocket body
Debris
Shape & HBR
Cyl + 2 Pan, 4.2 m
Radar Cross Section
1.484 m², Large (>1 m²)

Expand to show TLE details & history
Last TLE update: 3 days ago

TLE from 3 days ago
0 ORBCOMM FM 32
1 25982U 99065C   26171.00154369  .00000315  00000-0  15234-3 0  9997
2 25982  45.0134 159.9179 0004329  50.9865 309.1368 14.37132393387494
Epoch: 2026-06-20T00:02Z
TLE epoch observation values (Epoch: 2026-06-20T00:02:13.374Z)
Latitude
-0.00003°
Longitude
-108.86029°
Altitude
766.037 km
Speed
7.474 km/s
True Right ascension
10h 39m 40s
True Declination
0° 00' 00"
Sunlit
Object was in daylight at epoch
Visualization orbit readout
Latitude
Unknown
Longitude
Unknown
Altitude
Unknown
Speed
Unknown
Apparent Right ascension
Unknown
Apparent Declination
Unknown
Sunlit
N/A
Visualization observer readout
Local Sidereal Time
23:08:18
Azimuth
Unknown
Elevation
Unknown
Doppler factor
Unknown
Orbital elements
Apogee altitude
772.626 km
Perigee altitude
766.438 km
Semi-major axis
7,147.669 km
Eccentricity
0.00043
Inclination
45.0134°
RAAN
159.9179°
Arg. of periapsis
50.9865°
True anomaly
309.09831°
Mean anomaly
309.1368°
Eccentric anomaly
309.11756°
Mean motion
3.59167 °/min
Orbital period
100.23 mins
BSTAR
0.00015234
Loading maneuver chart data...
Computing Atmospheric mass density...

Documentation

Showing up to 5 results
|